Domov               UVHVVR             MKGP            O straneh              
ZDRAVSTVENO VARSTVO RASTLIN
  MREŽA AGROMET. POSTAJ
 ► PROGNOSTIČNA OBVESTILA
AGROMETEOROLOŠKI PODATKI -
ARSO
OBVLADOVANJE TVEGANJ ZARADI
NEUGODNIH VREMENSKIH RAZMER
  ► NARAVNE NESREČE
  ► SUŠA/MOČA
  ► NAMAKANJE
  ► ŽLED (gozdarstvo)
KARTOGRAFSKI PRIKAZI
SPLETNE POVEZAVE
PROJEKTI IN PUBLIKACIJE

AGROMETEOROLOŠKA MREŽA: VREMENSKE POSTAJE IN FENOLOŠKA OPAZOVANJA

Pregled podatkov za lokacijo Otočec, meteorološka postaja 37169

Pregled senzorjev na lokaciji

ID Ime Zadnja
vrednost
Datum
zadnje
spremembe
Tip
senzorja
3924 Relativna vlaga 2 m (% RH) 51,87 % RH 12.12.2017 00:45 50YA
3925 Temperatura 2 m (°C) 16,17 °C 12.12.2017 00:45 50YA
3926 Omočenost lista (U) 0 U 12.12.2017 00:45 A730WET
3927 Padavine (mm) 0 mm 12.12.2017 00:45 Rain-O-Matic

Pregled podatkov zadnjih 24 ur

Zap.
št.
Datum in čas Otočec
Omočenost
lista
Padavine Relativna
vlaga
2
m
Temperatura
2
m
0 12.12.2017 01:00 0 0 51,87 16,17
1 12.12.2017 00:30 0 0 53,16 15,87
2 12.12.2017 00:00 0 0 54,59 15,74
3 11.12.2017 23:30 0 0 53,75 16,03
4 11.12.2017 23:00 0 0 53,14 15,97
5 11.12.2017 22:30 0 0 53,3 15,93
6 11.12.2017 22:00 0 0 53,99 15,7
7 11.12.2017 21:30 0 0 54,6 15,59
8 11.12.2017 21:00 0 0 54,85 15,62
9 11.12.2017 20:30 0 0 56 15,38
10 11.12.2017 20:00 0 0 56,41 15,27
11 11.12.2017 19:30 0 0 56,8 15,21
12 11.12.2017 19:00 0 0 57,51 15,15
13 11.12.2017 18:30 0 0 57,7 15,21
14 11.12.2017 18:00 0 0 58,89 15,05
15 11.12.2017 17:30 0 0 59,78 14,88
16 11.12.2017 17:00 0 0 60,87 14,77
17 11.12.2017 16:30 0 0 62,31 14,62
18 11.12.2017 16:00 0 0 61,28 14,68
19 11.12.2017 15:30 0 0 62,81 14,4
20 11.12.2017 15:00 0 0 61,65 14,49
21 11.12.2017 14:30 0 0 62,17 14,37
22 11.12.2017 14:00 0 0 63,74 14,14
23 11.12.2017 13:30 0 0 62,26 14,21
24 11.12.2017 13:00 0 0 63,86 13,94
25 11.12.2017 12:30 0 0 66,15 13,46
26 11.12.2017 12:00 0 0 69,16 12,75
27 11.12.2017 11:30 0 0,4 69,45 12,55
28 11.12.2017 11:00 0 3 68,83 12,47
29 11.12.2017 10:30 0 3,4 71,32 11,93
30 11.12.2017 10:00 1 2,2 74,14 11,45
31 11.12.2017 09:30 1 0,4 95,58 3,15
32 11.12.2017 09:00 9 0,2 98,58 2
33 11.12.2017 08:30 10 0,2 99,44 1,88
34 11.12.2017 08:00 10 0,2 99,93 1,37
35 11.12.2017 07:30 10 0,2 99,93 1,05
36 11.12.2017 07:00 10 0 99,93 1,07
37 11.12.2017 06:30 10 0 99,93 0,9
38 11.12.2017 06:00 10 0 99,93 0,73
39 11.12.2017 05:30 10 0 99,93 0,46
40 11.12.2017 05:00 10 0 99,93 0,29
41 11.12.2017 04:30 10 0 99,93 -0,05
42 11.12.2017 04:00 10 0,2 99,93 0,02
43 11.12.2017 03:30 10 0 99,93 0,34
44 11.12.2017 03:00 10 0 99,93 0,44
45 11.12.2017 02:30 10 0 99,93 0,56
46 11.12.2017 02:00 10 0,2 99,93 0,63
© 2011 Ministrstvo za kmetijstvo, gozdarstvo in prehrano. Vse pravice pridržane.